Location: Arbon
(43.0005°N, 0.7472°E)
Time: 11:42:08
(UTC+00:00)

Cosmos 2237 Rocket - Pass Details

Date: 22 April 2026
Orbit: 833 x 850 km, 71.0° (Epoch: 15 May)

Event Time Altitude Azimuth Distance (km) Brightness Sun altitude
Rises 19:34:20 0° 214° (SW) 3,391 5.5 -8.7°
Reaches altitude 10° 19:36:48 10° 218° (SW) 2,462 4.8 -9.2°
Maximum altitude 19:42:22 59° 298° (WNW) 974 2.9 -10.1°
Drops below altitude 10° 19:48:01 10° 18° (NNE) 2,484 4.8 -11.0°
Sets 19:50:31 0° 22° (NNE) 3,424 5.5 -11.4°
